BAW7AZ EDDM-EGLL

Flight info

Callsign BAW7AZ
Flight time 1h 32m
Altitude 34000
Route GIVMI1N/26R GIVMI Y101 INBED DCT REKDI DCT LOHRE DCT ADKUV DCT DENUT L608 LOGAN
Aircraft A320/M-SDE3FGHIRWY/LB1

Departure

Time 2026-05-04 18:56
Airport Munich Airport (EDDM)

Arrival

Time 2026-05-04 20:28
Airport London Heathrow Airport (EGLL)
Time Latitude Longitude Altitude Speed Heading
2026-05-04 18:09 48.35328 11.78330 1486 ft 0 kts 83°
2026-05-04 18:41 48.35327 11.78325 1485 ft 2 kts 82°
2026-05-04 18:41 48.35325 11.78298 1483 ft 3 kts 80°
2026-05-04 18:42 48.35321 11.78268 1482 ft 3 kts 77°
2026-05-04 18:42 48.35316 11.78239 1477 ft 3 kts 77°
2026-05-04 18:42 48.35312 11.78209 1472 ft 3 kts 81°
2026-05-04 18:42 48.35310 11.78184 1475 ft 3 kts 73°
2026-05-04 18:43 48.35303 11.78164 1473 ft 3 kts 16°
2026-05-04 18:43 48.35286 11.78165 1471 ft 3 kts 341°
2026-05-04 18:43 48.35268 11.78174 1473 ft 2 kts 351°
2026-05-04 18:43 48.35264 11.78175 1473 ft 1 kts 354°
2026-05-04 18:45 48.35290 11.78171 1471 ft 8 kts 354°
2026-05-04 18:46 48.35345 11.78138 1475 ft 9 kts 312°
2026-05-04 18:46 48.35348 11.78033 1485 ft 13 kts 264°
2026-05-04 18:46 48.35336 11.77876 1485 ft 16 kts 263°
2026-05-04 18:46 48.35400 11.77776 1485 ft 16 kts 351°
2026-05-04 18:47 48.35521 11.77755 1473 ft 19 kts 353°
2026-05-04 18:47 48.35671 11.77727 1475 ft 26 kts 354°
2026-05-04 18:47 48.35853 11.77698 1485 ft 27 kts 354°
2026-05-04 18:47 48.36001 11.77671 1479 ft 20 kts 352°
2026-05-04 18:48 48.36081 11.77776 1482 ft 18 kts 77°
2026-05-04 18:48 48.36098 11.77986 1485 ft 24 kts 83°
2026-05-04 18:48 48.36119 11.78252 1485 ft 28 kts 83°
2026-05-04 18:48 48.36140 11.78554 1483 ft 29 kts 83°
2026-05-04 18:49 48.36165 11.78863 1472 ft 30 kts 83°
2026-05-04 18:49 48.36188 11.79145 1485 ft 22 kts 83°
2026-05-04 18:49 48.36206 11.79374 1485 ft 23 kts 84°
2026-05-04 18:49 48.36224 11.79624 1479 ft 24 kts 83°
2026-05-04 18:50 48.36245 11.79882 1485 ft 26 kts 83°
2026-05-04 18:50 48.36267 11.80157 1481 ft 27 kts 84°
2026-05-04 18:50 48.36289 11.80455 1485 ft 29 kts 83°
2026-05-04 18:50 48.36313 11.80765 1482 ft 30 kts 83°
2026-05-04 18:51 48.36338 11.81085 1474 ft 31 kts 84°
2026-05-04 18:51 48.36363 11.81413 1485 ft 32 kts 83°
2026-05-04 18:51 48.36389 11.81748 1485 ft 33 kts 83°
2026-05-04 18:51 48.36400 11.81968 1485 ft 11 kts 68°
2026-05-04 18:52 48.36485 11.81997 1477 ft 16 kts 352°
2026-05-04 18:52 48.36570 11.81981 1479 ft 0 kts 352°
2026-05-04 18:53 48.36603 11.81975 1485 ft 12 kts 352°
2026-05-04 18:53 48.36671 11.81888 1478 ft 18 kts 277°
2026-05-04 18:53 48.36668 11.81835 1478 ft 1 kts 262°
2026-05-04 18:53 48.36666 11.81816 1475 ft 3 kts 263°
2026-05-04 18:54 48.36663 11.81779 1481 ft 4 kts 263°
2026-05-04 18:54 48.36648 11.81601 1485 ft 47 kts 263°
2026-05-04 18:54 48.36590 11.80788 1485 ft 107 kts 263°
2026-05-04 18:54 48.36485 11.79432 1482 ft 152 kts 263°
2026-05-04 18:55 48.36358 11.77885 1580 ft 177 kts 263°
2026-05-04 18:55 48.36342 11.77704 1624 ft 177 kts 263°
2026-05-04 18:56 48.36172 11.75723 1959 ft 195 kts 264°
2026-05-04 18:56 48.36019 11.73710 2715 ft 193 kts 264°
2026-05-04 18:56 48.35875 11.71727 3426 ft 187 kts 264°
2026-05-04 18:56 48.35744 11.69822 4132 ft 178 kts 268°
2026-05-04 18:57 48.35879 11.68036 4843 ft 167 kts 285°
2026-05-04 18:57 48.36298 11.66500 5529 ft 151 kts 299°
2026-05-04 18:57 48.36861 11.65135 5908 ft 158 kts 300°
2026-05-04 18:57 48.37468 11.63665 6156 ft 176 kts 299°
2026-05-04 18:58 48.38148 11.62000 6348 ft 198 kts 299°
2026-05-04 18:58 48.38969 11.60188 6515 ft 222 kts 314°
2026-05-04 18:58 48.40352 11.58920 6716 ft 246 kts 334°
2026-05-04 18:58 48.41982 11.57758 6901 ft 273 kts 332°
2026-05-04 18:59 48.43726 11.56446 6937 ft 283 kts 332°
2026-05-04 18:59 48.45493 11.55096 6945 ft 285 kts 332°
2026-05-04 18:59 48.47265 11.53743 6947 ft 286 kts 332°
2026-05-04 18:59 48.49096 11.52351 7099 ft 309 kts 332°
2026-05-04 19:00 48.51044 11.50877 7538 ft 325 kts 332°
2026-05-04 19:00 48.53095 11.49331 8217 ft 331 kts 331°
2026-05-04 19:00 48.55172 11.47768 8987 ft 335 kts 330°
2026-05-04 19:00 48.57268 11.46191 9757 ft 338 kts 330°
2026-05-04 19:01 48.59389 11.44596 10460 ft 342 kts 330°
2026-05-04 19:01 48.61527 11.42984 11133 ft 345 kts 330°
2026-05-04 19:01 48.63691 11.41350 11801 ft 350 kts 330°
2026-05-04 19:01 48.65876 11.39692 12457 ft 353 kts 330°
2026-05-04 19:02 48.68088 11.38015 13113 ft 357 kts 330°
2026-05-04 19:02 48.70331 11.36244 13780 ft 360 kts 326°
2026-05-04 19:02 48.71719 11.34865 14158 ft 361 kts 323°
2026-05-04 19:02 48.74497 11.32051 14941 ft 364 kts 323°
2026-05-04 19:03 48.76614 11.29908 15525 ft 366 kts 323°
2026-05-04 19:03 48.78048 11.28455 15927 ft 368 kts 323°
2026-05-04 19:03 48.80184 11.26290 16521 ft 370 kts 323°
2026-05-04 19:03 48.83031 11.23405 17318 ft 373 kts 324°
2026-05-04 19:04 48.84534 11.22104 17702 ft 377 kts 332°
2026-05-04 19:04 48.86998 11.20659 18275 ft 382 kts 339°
2026-05-04 19:04 48.89566 11.19370 18735 ft 387 kts 339°
2026-05-04 19:04 48.92169 11.18051 18856 ft 402 kts 339°
2026-05-04 19:05 48.94826 11.16696 18975 ft 415 kts 339°
2026-05-04 19:05 48.97608 11.15274 19097 ft 428 kts 339°
2026-05-04 19:05 49.00472 11.13809 19239 ft 439 kts 339°
2026-05-04 19:05 49.03398 11.12311 19356 ft 450 kts 339°
2026-05-04 19:06 49.06397 11.10777 19552 ft 457 kts 339°
2026-05-04 19:06 49.09332 11.09282 19960 ft 458 kts 339°
2026-05-04 19:06 49.12361 11.07743 20468 ft 458 kts 339°
2026-05-04 19:06 49.15385 11.06206 20962 ft 458 kts 339°
2026-05-04 19:07 49.18405 11.04669 21460 ft 457 kts 339°
2026-05-04 19:07 49.21425 11.03127 21989 ft 456 kts 339°
2026-05-04 19:07 49.24435 11.01581 22500 ft 456 kts 339°
2026-05-04 19:07 49.27435 11.00034 22994 ft 455 kts 339°
2026-05-04 19:08 49.30441 10.98481 23511 ft 454 kts 338°
2026-05-04 19:08 49.33434 10.96933 23954 ft 453 kts 338°
2026-05-04 19:08 49.36362 10.95167 24403 ft 449 kts 330°
2026-05-04 19:08 49.38989 10.92650 24861 ft 443 kts 319°
2026-05-04 19:09 49.41234 10.89460 25326 ft 437 kts 308°
2026-05-04 19:09 49.43158 10.85868 25818 ft 434 kts 306°
2026-05-04 19:09 49.45029 10.82319 26319 ft 432 kts 306°
2026-05-04 19:09 49.46913 10.78745 26854 ft 430 kts 306°
2026-05-04 19:10 49.48822 10.75126 27368 ft 429 kts 306°
2026-05-04 19:10 49.50701 10.71561 27867 ft 428 kts 306°
2026-05-04 19:10 49.52569 10.68011 28370 ft 426 kts 305°
2026-05-04 19:10 49.54415 10.64499 28843 ft 426 kts 305°
2026-05-04 19:11 49.56313 10.60871 28989 ft 434 kts 305°
2026-05-04 19:11 49.58220 10.57216 29147 ft 440 kts 305°
2026-05-04 19:11 49.60120 10.53571 29455 ft 442 kts 305°
2026-05-04 19:11 49.62042 10.49881 29893 ft 442 kts 305°
2026-05-04 19:12 49.63963 10.46192 30322 ft 440 kts 305°
2026-05-04 19:12 49.67681 10.38717 31168 ft 437 kts 301°
2026-05-04 19:12 49.69405 10.34867 31584 ft 435 kts 300°
2026-05-04 19:13 49.71072 10.30981 32001 ft 434 kts 299°
2026-05-04 19:13 49.72720 10.27083 32427 ft 433 kts 299°
2026-05-04 19:13 49.74305 10.23355 32839 ft 432 kts 299°
2026-05-04 19:13 49.75967 10.19495 33298 ft 430 kts 300°
2026-05-04 19:14 49.77645 10.15651 33750 ft 429 kts 300°
2026-05-04 19:14 49.79307 10.11873 33951 ft 429 kts 300°
2026-05-04 19:14 49.80983 10.08069 33964 ft 428 kts 300°
2026-05-04 19:15 49.84330 10.00443 33988 ft 428 kts 299°
2026-05-04 19:15 49.87671 9.92773 33977 ft 429 kts 299°
2026-05-04 19:16 49.91009 9.85088 33975 ft 430 kts 299°
2026-05-04 19:16 49.94345 9.77388 33976 ft 429 kts 299°
2026-05-04 19:17 49.97669 9.69689 33977 ft 429 kts 299°
2026-05-04 19:17 50.00938 9.62094 33985 ft 430 kts 299°
2026-05-04 19:18 50.04254 9.54363 34004 ft 429 kts 298°
2026-05-04 19:18 50.07068 9.46296 34003 ft 419 kts 284°
2026-05-04 19:19 50.08659 9.37614 33997 ft 416 kts 281°
2026-05-04 19:19 50.10159 9.29074 33990 ft 416 kts 281°
2026-05-04 19:20 50.11690 9.20375 33989 ft 416 kts 281°
2026-05-04 19:20 50.13216 9.11684 33996 ft 416 kts 280°
2026-05-04 19:21 50.14732 9.02964 33987 ft 417 kts 280°
2026-05-04 19:21 50.16233 8.94285 33982 ft 417 kts 280°
2026-05-04 19:22 50.17748 8.85491 33981 ft 417 kts 280°
2026-05-04 19:22 50.19230 8.76806 33982 ft 417 kts 280°
2026-05-04 19:23 50.20718 8.68042 33985 ft 417 kts 280°
2026-05-04 19:23 50.22206 8.59297 33986 ft 417 kts 280°
2026-05-04 19:24 50.23687 8.50551 33987 ft 417 kts 279°
2026-05-04 19:24 50.25165 8.41742 33987 ft 417 kts 279°
2026-05-04 19:25 50.26630 8.32980 33988 ft 417 kts 279°
2026-05-04 19:25 50.28088 8.24192 34006 ft 417 kts 279°
2026-05-04 19:26 50.29541 8.15402 33999 ft 417 kts 279°
2026-05-04 19:26 50.30991 8.06596 34000 ft 417 kts 279°
2026-05-04 19:27 50.32427 7.97801 34003 ft 418 kts 279°
2026-05-04 19:27 50.33867 7.88978 34010 ft 418 kts 279°
2026-05-04 19:28 50.35293 7.80149 34026 ft 418 kts 278°
2026-05-04 19:28 50.36713 7.71310 34016 ft 418 kts 278°
2026-05-04 19:29 50.38089 7.62696 34012 ft 418 kts 278°
2026-05-04 19:29 50.39490 7.53913 34012 ft 418 kts 278°
2026-05-04 19:30 50.40892 7.45081 34012 ft 418 kts 278°
2026-05-04 19:30 50.42285 7.36239 34036 ft 417 kts 278°
2026-05-04 19:31 50.43668 7.27420 34031 ft 416 kts 278°
2026-05-04 19:31 50.45006 7.18892 34025 ft 415 kts 277°
2026-05-04 19:32 50.46369 7.10096 34016 ft 415 kts 277°
2026-05-04 19:32 50.47681 7.01508 34010 ft 415 kts 277°
2026-05-04 19:33 50.49020 6.92693 34020 ft 415 kts 277°
2026-05-04 19:33 50.50361 6.83871 33983 ft 416 kts 277°
2026-05-04 19:34 50.52302 6.75215 33982 ft 422 kts 285°
2026-05-04 19:34 50.54439 6.66599 33973 ft 423 kts 285°
2026-05-04 19:35 50.56564 6.57979 33974 ft 423 kts 285°
2026-05-04 19:35 50.58612 6.49625 33996 ft 423 kts 285°
2026-05-04 19:36 50.60733 6.40965 33995 ft 424 kts 285°
2026-05-04 19:36 50.62795 6.32485 33989 ft 424 kts 284°
2026-05-04 19:37 50.64892 6.23797 33983 ft 424 kts 284°
2026-05-04 19:37 50.66970 6.15192 33983 ft 424 kts 284°
2026-05-04 19:38 50.69032 6.06604 34001 ft 424 kts 284°
2026-05-04 19:38 50.71032 5.98242 33995 ft 425 kts 285°
2026-05-04 19:39 50.73119 5.89518 33992 ft 425 kts 284°
2026-05-04 19:39 50.75193 5.80773 33994 ft 425 kts 284°
2026-05-04 19:40 50.77169 5.72396 33993 ft 424 kts 284°
2026-05-04 19:40 50.79228 5.63675 33992 ft 424 kts 284°
2026-05-04 19:41 50.81282 5.54921 33990 ft 425 kts 285°
2026-05-04 19:41 50.83274 5.46384 33975 ft 426 kts 285°
2026-05-04 19:42 50.85330 5.37550 33967 ft 426 kts 285°
2026-05-04 19:42 50.87360 5.28814 33966 ft 427 kts 285°
2026-05-04 19:43 50.89568 5.20055 33968 ft 429 kts 287°
2026-05-04 19:43 50.91456 5.12875 33987 ft 429 kts 288°
2026-05-04 19:44 50.94100 5.02694 33975 ft 430 kts 287°
2026-05-04 19:44 50.96308 4.94008 33973 ft 430 kts 287°
2026-05-04 19:45 50.98169 4.86624 33976 ft 430 kts 287°
2026-05-04 19:45 51.00375 4.77870 33976 ft 430 kts 287°
2026-05-04 19:46 51.02606 4.69041 33998 ft 430 kts 288°
2026-05-04 19:46 51.04830 4.60207 33990 ft 431 kts 288°
2026-05-04 19:47 51.07044 4.51358 33987 ft 431 kts 288°
2026-05-04 19:47 51.09248 4.42489 33987 ft 431 kts 287°
2026-05-04 19:48 51.11445 4.33615 33987 ft 431 kts 287°
2026-05-04 19:48 51.13638 4.24736 33986 ft 431 kts 287°
2026-05-04 19:49 51.15822 4.15851 33986 ft 431 kts 287°
2026-05-04 19:49 51.18001 4.06958 33988 ft 431 kts 287°
2026-05-04 19:50 51.20143 3.98143 33993 ft 431 kts 287°
2026-05-04 19:50 51.22296 3.89239 33996 ft 431 kts 287°
2026-05-04 19:51 51.24453 3.80316 34009 ft 431 kts 288°
2026-05-04 19:51 51.26608 3.71396 34007 ft 430 kts 288°
2026-05-04 19:52 51.28755 3.62466 34005 ft 430 kts 288°
2026-05-04 19:52 51.30894 3.53534 34010 ft 430 kts 288°
2026-05-04 19:53 51.33032 3.44600 34011 ft 430 kts 288°
2026-05-04 19:53 51.35139 3.35712 34016 ft 430 kts 287°
2026-05-04 19:54 51.37241 3.26771 34025 ft 429 kts 288°
2026-05-04 19:54 51.39347 3.17831 34032 ft 429 kts 288°
2026-05-04 19:55 51.41444 3.08896 34027 ft 428 kts 288°
2026-05-04 19:55 51.43531 2.99963 34030 ft 428 kts 288°
2026-05-04 19:56 51.45604 2.91023 34029 ft 428 kts 288°
2026-05-04 19:56 51.47750 2.81709 34034 ft 428 kts 287°
2026-05-04 19:57 51.49813 2.72750 34026 ft 428 kts 287°
2026-05-04 19:57 51.51874 2.63778 34029 ft 428 kts 287°
2026-05-04 19:57 51.52902 2.59283 33840 ft 427 kts 287°
2026-05-04 19:58 51.53919 2.54816 33564 ft 425 kts 287°
2026-05-04 19:58 51.54932 2.50354 33288 ft 423 kts 287°
2026-05-04 19:58 51.55936 2.45926 33010 ft 422 kts 287°
2026-05-04 19:58 51.56939 2.41502 32742 ft 420 kts 287°
2026-05-04 19:59 51.57939 2.37093 32481 ft 418 kts 287°
2026-05-04 19:59 51.58929 2.32717 32211 ft 415 kts 287°
2026-05-04 19:59 51.59911 2.28363 31961 ft 413 kts 287°
2026-05-04 19:59 51.60881 2.24039 31608 ft 408 kts 287°
2026-05-04 20:00 51.61825 2.19811 31147 ft 405 kts 287°
2026-05-04 20:00 51.62776 2.15552 30680 ft 402 kts 287°
2026-05-04 20:00 51.63718 2.11318 30220 ft 400 kts 287°
2026-05-04 20:00 51.64652 2.07123 29719 ft 397 kts 287°
2026-05-04 20:01 51.65577 2.02971 29274 ft 392 kts 287°
2026-05-04 20:01 51.66493 1.98853 28834 ft 388 kts 287°
2026-05-04 20:01 51.67398 1.94779 28406 ft 384 kts 287°
2026-05-04 20:01 51.68292 1.90743 27989 ft 381 kts 287°
2026-05-04 20:02 51.69187 1.86687 27574 ft 378 kts 287°
2026-05-04 20:02 51.70052 1.82762 27179 ft 375 kts 287°
2026-05-04 20:02 51.70920 1.78821 26787 ft 372 kts 287°
2026-05-04 20:02 51.71754 1.75023 26413 ft 368 kts 287°
2026-05-04 20:03 51.72600 1.71153 26034 ft 365 kts 287°
2026-05-04 20:03 51.73280 1.68043 25721 ft 363 kts 287°
2026-05-04 20:03 51.74062 1.64253 25334 ft 359 kts 282°
2026-05-04 20:03 51.74484 1.60340 24960 ft 354 kts 273°
2026-05-04 20:04 51.74481 1.56353 24405 ft 358 kts 262°
2026-05-04 20:04 51.74215 1.52357 23872 ft 360 kts 262°
2026-05-04 20:04 51.73948 1.48332 23274 ft 361 kts 262°
2026-05-04 20:04 51.73686 1.44299 22718 ft 361 kts 262°
2026-05-04 20:05 51.73428 1.40279 22178 ft 360 kts 262°
2026-05-04 20:05 51.73170 1.36262 21637 ft 359 kts 262°
2026-05-04 20:05 51.72911 1.32253 21102 ft 359 kts 262°
2026-05-04 20:05 51.72649 1.28251 20565 ft 358 kts 262°
2026-05-04 20:06 51.72381 1.24254 20027 ft 357 kts 263°
2026-05-04 20:06 51.72115 1.20276 19487 ft 357 kts 263°
2026-05-04 20:06 51.71859 1.16457 18981 ft 357 kts 263°
2026-05-04 20:06 51.71590 1.12479 18443 ft 358 kts 263°
2026-05-04 20:07 51.71325 1.08536 17866 ft 357 kts 263°
2026-05-04 20:07 51.71056 1.04571 17329 ft 356 kts 263°
2026-05-04 20:07 51.70782 1.00614 16797 ft 354 kts 263°
2026-05-04 20:07 51.70508 0.96682 16271 ft 352 kts 263°
2026-05-04 20:08 51.70239 0.92782 15874 ft 346 kts 263°
2026-05-04 20:08 51.69984 0.89073 15300 ft 348 kts 263°
2026-05-04 20:08 51.69716 0.85205 14837 ft 346 kts 263°
2026-05-04 20:08 51.69447 0.81361 14373 ft 344 kts 264°
2026-05-04 20:09 51.69178 0.77544 13912 ft 342 kts 264°
2026-05-04 20:09 51.68908 0.73742 13411 ft 340 kts 264°
2026-05-04 20:09 51.68640 0.69974 12950 ft 337 kts 264°
2026-05-04 20:09 51.68375 0.66235 12497 ft 334 kts 264°
2026-05-04 20:10 51.68111 0.62519 12058 ft 332 kts 264°
2026-05-04 20:10 51.67848 0.58847 11604 ft 330 kts 263°
2026-05-04 20:10 51.67583 0.55179 11161 ft 328 kts 263°
2026-05-04 20:10 51.67317 0.51554 10846 ft 322 kts 263°
2026-05-04 20:11 51.67060 0.48038 10719 ft 311 kts 263°
2026-05-04 20:11 51.66811 0.44637 10602 ft 300 kts 263°
2026-05-04 20:11 51.66567 0.41360 10261 ft 291 kts 263°
2026-05-04 20:11 51.66328 0.38148 9686 ft 287 kts 263°
2026-05-04 20:12 51.66077 0.34997 9156 ft 281 kts 262°
2026-05-04 20:12 51.65789 0.31892 8589 ft 277 kts 262°
2026-05-04 20:12 51.65499 0.28891 8135 ft 272 kts 261°
2026-05-04 20:12 51.65203 0.25872 8038 ft 274 kts 261°
2026-05-04 20:13 51.64903 0.22860 8036 ft 272 kts 261°
2026-05-04 20:13 51.64604 0.19847 8028 ft 273 kts 261°
2026-05-04 20:13 51.64305 0.16819 8028 ft 273 kts 261°
2026-05-04 20:13 51.64006 0.13798 8032 ft 274 kts 261°
2026-05-04 20:14 51.63707 0.10758 8030 ft 275 kts 261°
2026-05-04 20:14 51.63409 0.07723 7998 ft 274 kts 261°
2026-05-04 20:14 51.63110 0.04695 7738 ft 273 kts 261°
2026-05-04 20:14 51.62811 0.01699 7492 ft 269 kts 261°
2026-05-04 20:15 51.62509 -0.01263 7258 ft 268 kts 261°
2026-05-04 20:15 51.62215 -0.04244 7083 ft 269 kts 261°
2026-05-04 20:15 51.61927 -0.07198 7044 ft 268 kts 261°
2026-05-04 20:15 51.61640 -0.10180 7053 ft 271 kts 261°
2026-05-04 20:16 51.61371 -0.13166 7060 ft 266 kts 265°
2026-05-04 20:16 51.61240 -0.16069 6951 ft 256 kts 266°
2026-05-04 20:16 51.61145 -0.18926 6830 ft 256 kts 267°
2026-05-04 20:16 51.61061 -0.21822 6707 ft 261 kts 267°
2026-05-04 20:17 51.60977 -0.24739 6587 ft 260 kts 267°
2026-05-04 20:17 51.60892 -0.27685 6464 ft 266 kts 267°
2026-05-04 20:17 51.60802 -0.30659 6312 ft 265 kts 267°
2026-05-04 20:17 51.60711 -0.33627 6179 ft 267 kts 267°
2026-05-04 20:18 51.60618 -0.36616 6048 ft 268 kts 267°
2026-05-04 20:18 51.60525 -0.39559 5929 ft 266 kts 267°
2026-05-04 20:18 51.60428 -0.42523 5790 ft 265 kts 267°
2026-05-04 20:18 51.60332 -0.45495 5662 ft 265 kts 267°
2026-05-04 20:19 51.60234 -0.48447 5534 ft 264 kts 267°
2026-05-04 20:19 51.60134 -0.51389 5403 ft 264 kts 268°
2026-05-04 20:19 51.60033 -0.54344 5285 ft 265 kts 267°
2026-05-04 20:19 51.59932 -0.57292 5142 ft 263 kts 267°
2026-05-04 20:20 51.59834 -0.60225 5026 ft 260 kts 268°
2026-05-04 20:20 51.59737 -0.63078 4954 ft 249 kts 267°
2026-05-04 20:20 51.59642 -0.65766 5005 ft 235 kts 268°
2026-05-04 20:20 51.59551 -0.68380 5010 ft 233 kts 267°
2026-05-04 20:21 51.59460 -0.70986 5014 ft 232 kts 268°
2026-05-04 20:21 51.59372 -0.73488 5006 ft 217 kts 268°
2026-05-04 20:21 51.58727 -0.77887 4786 ft 202 kts 233°
2026-05-04 20:22 51.57624 -0.79277 4578 ft 204 kts 204°
2026-05-04 20:22 51.56232 -0.79638 4381 ft 206 kts 176°
2026-05-04 20:22 51.54801 -0.79549 4181 ft 206 kts 176°
2026-05-04 20:22 51.53367 -0.79467 3987 ft 204 kts 177°
2026-05-04 20:23 51.51949 -0.79388 3793 ft 204 kts 176°
2026-05-04 20:23 51.50572 -0.78979 3604 ft 201 kts 153°
2026-05-04 20:23 51.49513 -0.77615 3511 ft 198 kts 124°
2026-05-04 20:23 51.48987 -0.75665 3320 ft 187 kts 104°
2026-05-04 20:24 51.48621 -0.73686 3099 ft 183 kts 104°
2026-05-04 20:24 51.48260 -0.71755 2876 ft 177 kts 103°
2026-05-04 20:24 51.47912 -0.69904 2660 ft 170 kts 105°
2026-05-04 20:24 51.47686 -0.68099 2484 ft 161 kts 89°
2026-05-04 20:25 51.47674 -0.66340 2294 ft 154 kts 87°
2026-05-04 20:25 51.47676 -0.64670 2094 ft 145 kts 87°
2026-05-04 20:25 51.47682 -0.63063 1907 ft 143 kts 86°
2026-05-04 20:25 51.47689 -0.61480 1727 ft 139 kts 87°
2026-05-04 20:26 51.47696 -0.59958 1537 ft 135 kts 87°
2026-05-04 20:26 51.47703 -0.58465 1350 ft 133 kts 86°
2026-05-04 20:26 51.47710 -0.57029 1172 ft 135 kts 86°
2026-05-04 20:26 51.47717 -0.55613 1004 ft 135 kts 86°
2026-05-04 20:27 51.47724 -0.54111 824 ft 135 kts 86°
2026-05-04 20:27 51.47733 -0.52598 616 ft 136 kts 88°
2026-05-04 20:27 51.47735 -0.51081 427 ft 134 kts 88°
2026-05-04 20:27 51.47742 -0.49572 255 ft 137 kts 87°
2026-05-04 20:28 51.47747 -0.48074 100 ft 136 kts 83°
2026-05-04 20:28 51.47758 -0.46778 92 ft 92 kts 90°
2026-05-04 20:28 51.47762 -0.46029 86 ft 47 kts 91°
2026-05-04 20:28 51.47759 -0.45548 85 ft 29 kts 103°
2026-05-04 20:29 51.47650 -0.45469 86 ft 1 kts 176°
2026-05-04 20:29 51.47645 -0.45469 86 ft 0 kts 176°
2026-05-04 20:29 51.47644 -0.45469 86 ft 1 kts 176°
2026-05-04 20:30 51.47607 -0.45496 87 ft 14 kts 231°
2026-05-04 20:30 51.47597 -0.45720 86 ft 23 kts 270°
2026-05-04 20:31 51.47595 -0.45990 90 ft 25 kts 269°
2026-05-04 20:31 51.47595 -0.46284 90 ft 27 kts 270°
2026-05-04 20:31 51.47595 -0.46595 88 ft 29 kts 270°
2026-05-04 20:31 51.47585 -0.46871 88 ft 22 kts 262°
2026-05-04 20:32 51.47584 -0.47116 86 ft 23 kts 265°
2026-05-04 20:32 51.47582 -0.47385 90 ft 25 kts 270°
2026-05-04 20:32 51.47583 -0.47678 90 ft 27 kts 269°
2026-05-04 20:32 51.47582 -0.47992 89 ft 29 kts 270°
2026-05-04 20:33 51.47579 -0.48303 90 ft 20 kts 264°
2026-05-04 20:33 51.47461 -0.48360 86 ft 20 kts 180°
2026-05-04 20:33 51.47313 -0.48358 86 ft 23 kts 179°
2026-05-04 20:33 51.47143 -0.48357 86 ft 26 kts 181°
2026-05-04 20:34 51.46957 -0.48360 86 ft 28 kts 180°
2026-05-04 20:34 51.46878 -0.48469 86 ft 17 kts 270°
2026-05-04 20:34 51.46879 -0.48671 86 ft 20 kts 270°
2026-05-04 20:34 51.46910 -0.48787 86 ft 10 kts 349°
2026-05-04 20:35 51.46926 -0.48787 88 ft 3 kts 359°
2026-05-04 20:35 51.46931 -0.48787 89 ft 0 kts 359°